Time,TemperatureF,DewpointF,PressureIn,WindDirection,WindDirectionDegrees,WindSpeedMPH,WindSpeedGustMPH,Humidity,HourlyPrecipIn,Conditions,Clouds,dailyrainin,SoftwareType,DateUTC
2013-04-15 00:00:00,19.0,-99.9,-100.00,West,269,15.0,17.0,-999,-99.99,,,-99.99,,2013-04-15 06:00:00,
2013-04-15 00:53:00,19.0,-99.9,-100.00,West,269,15.0,17.0,-999,-99.99,,,-99.99,,2013-04-15 06:53:00,
2013-04-15 01:00:00,19.0,-99.9,-100.00,West,266,16.0,24.0,-999,-99.99,,,-99.99,,2013-04-15 07:00:00,
2013-04-15 01:54:00,19.0,-99.9,-100.00,West,266,16.0,24.0,-999,-99.99,,,-99.99,,2013-04-15 07:54:00,
2013-04-15 02:00:00,18.0,-99.9,-100.00,WSW,241,13.0,19.0,-999,-99.99,,,-99.99,,2013-04-15 08:00:00,
2013-04-15 02:52:00,18.0,-99.9,-100.00,WSW,241,13.0,19.0,-999,-99.99,,,-99.99,,2013-04-15 08:52:00,
2013-04-15 03:00:00,18.0,-99.9,-100.00,SSW,209,3.0,9.0,-999,-99.99,,,-99.99,,2013-04-15 09:00:00,
2013-04-15 03:53:00,18.0,-99.9,-100.00,SSW,209,3.0,9.0,-999,-99.99,,,-99.99,,2013-04-15 09:53:00,
2013-04-15 04:00:00,19.0,-99.9,-100.00,SE,134,3.0,7.0,-999,-99.99,,,-99.99,,2013-04-15 10:00:00,
2013-04-15 04:53:00,19.0,-99.9,-100.00,SE,134,3.0,7.0,-999,-99.99,,,-99.99,,2013-04-15 10:53:00,
2013-04-15 05:00:00,18.0,-99.9,-100.00,ESE,112,5.0,7.0,-999,-99.99,,,-99.99,,2013-04-15 11:00:00,
2013-04-15 05:54:00,18.0,-99.9,-100.00,ESE,112,5.0,7.0,-999,-99.99,,,-99.99,,2013-04-15 11:54:00,
2013-04-15 06:00:00,18.0,-99.9,-100.00,ENE,78,12.0,19.0,-999,-99.99,,,-99.99,,2013-04-15 12:00:00,
2013-04-15 06:54:00,18.0,-99.9,-100.00,ENE,78,12.0,19.0,-999,-99.99,,,-99.99,,2013-04-15 12:54:00,
2013-04-15 07:00:00,16.0,-99.9,-100.00,East,87,18.0,20.0,-999,-99.99,,,-99.99,,2013-04-15 13:00:00,
2013-04-15 07:54:00,16.0,-99.9,-100.00,East,87,18.0,20.0,-999,-99.99,,,-99.99,,2013-04-15 13:54:00,
2013-04-15 08:00:00,14.0,-99.9,-100.00,NE,48,17.0,18.0,-999,-99.99,,,-99.99,,2013-04-15 14:00:00,
2013-04-15 08:55:00,14.0,-99.9,-100.00,NE,48,17.0,18.0,-999,-99.99,,,-99.99,,2013-04-15 14:55:00,
2013-04-15 09:00:00,16.0,-99.9,-100.00,ENE,61,17.0,19.0,-999,-99.99,,,-99.99,,2013-04-15 15:00:00,
2013-04-15 09:55:00,16.0,-99.9,-100.00,ENE,61,17.0,19.0,-999,-99.99,,,-99.99,,2013-04-15 15:55:00,
2013-04-15 10:00:00,18.0,-99.9,-100.00,ENE,65,11.0,17.0,-999,-99.99,,,-99.99,,2013-04-15 16:00:00,
2013-04-15 10:55:00,18.0,-99.9,-100.00,ENE,65,11.0,17.0,-999,-99.99,,,-99.99,,2013-04-15 16:55:00,
2013-04-15 11:00:00,19.0,-99.9,-100.00,NE,47,17.0,21.0,-999,-99.99,,,-99.99,,2013-04-15 17:00:00,
2013-04-15 11:53:00,19.0,-99.9,-100.00,NE,47,17.0,21.0,-999,-99.99,,,-99.99,,2013-04-15 17:53:00,
2013-04-15 12:00:00,18.0,-99.9,-100.00,NE,48,14.0,17.0,-999,-99.99,,,-99.99,,2013-04-15 18:00:00,
2013-04-15 12:52:00,18.0,-99.9,-100.00,NE,48,14.0,17.0,-999,-99.99,,,-99.99,,2013-04-15 18:52:00,
2013-04-15 13:00:00,19.0,-99.9,-100.00,NE,51,13.0,16.0,-999,-99.99,,,-99.99,,2013-04-15 19:00:00,
2013-04-15 14:00:00,21.0,-99.9,-100.00,NNE,33,12.0,15.0,-999,-99.99,,,-99.99,,2013-04-15 20:00:00,
2013-04-15 14:52:00,21.0,-99.9,-100.00,NNE,33,12.0,15.0,-999,-99.99,,,-99.99,,2013-04-15 20:52:00,
2013-04-15 15:00:00,21.0,-99.9,-100.00,NE,40,11.0,12.0,-999,-99.99,,,-99.99,,2013-04-15 21:00:00,
2013-04-15 15:33:00,21.0,-99.9,-100.00,NE,40,11.0,12.0,-999,-99.99,,,-99.99,,2013-04-15 21:33:00,
2013-04-15 15:43:00,21.0,-99.9,-100.00,NE,40,11.0,12.0,-999,-99.99,,,-99.99,,2013-04-15 21:43:00,
2013-04-15 15:53:00,21.0,-99.9,-100.00,NE,40,11.0,12.0,-999,-99.99,,,-99.99,,2013-04-15 21:53:00,
2013-04-15 16:00:00,19.0,-99.9,-100.00,NNE,12,11.0,12.0,-999,-99.99,,,-99.99,,2013-04-15 22:00:00,
2013-04-15 16:52:00,19.0,-99.9,-100.00,NNE,12,11.0,12.0,-999,-99.99,,,-99.99,,2013-04-15 22:52:00,
2013-04-15 17:00:00,14.0,-99.9,-100.00,NNE,12,9.0,13.0,-999,-99.99,,,-99.99,,2013-04-15 23:00:00,
2013-04-15 17:52:00,14.0,-99.9,-100.00,NNE,12,9.0,13.0,-999,-99.99,,,-99.99,,2013-04-15 23:52:00,
2013-04-15 18:00:00,14.0,-99.9,-100.00,NNE,25,9.0,10.0,-999,-99.99,,,-99.99,,2013-04-16 00:00:00,
2013-04-15 18:52:00,14.0,-99.9,-100.00,NNE,25,9.0,10.0,-999,-99.99,,,-99.99,,2013-04-16 00:52:00,
2013-04-15 19:00:00,14.0,-99.9,-100.00,NNE,25,6.0,11.0,-999,-99.99,,,-99.99,,2013-04-16 01:00:00,
2013-04-15 19:52:00,14.0,-99.9,-100.00,NNE,25,6.0,11.0,-999,-99.99,,,-99.99,,2013-04-16 01:52:00,
2013-04-15 20:00:00,12.0,-99.9,-100.00,North,4,7.0,10.0,-999,-99.99,,,-99.99,,2013-04-16 02:00:00,
2013-04-15 20:52:00,12.0,-99.9,-100.00,North,4,7.0,10.0,-999,-99.99,,,-99.99,,2013-04-16 02:52:00,
2013-04-15 21:00:00,14.0,-99.9,-100.00,NE,38,10.0,11.0,-999,-99.99,,,-99.99,,2013-04-16 03:00:00,
2013-04-15 21:53:00,14.0,-99.9,-100.00,NE,38,10.0,11.0,-999,-99.99,,,-99.99,,2013-04-16 03:53:00,
2013-04-15 22:00:00,12.0,-99.9,-100.00,ENE,57,8.0,10.0,-999,-99.99,,,-99.99,,2013-04-16 04:00:00,
2013-04-15 22:53:00,12.0,-99.9,-100.00,ENE,57,8.0,10.0,-999,-99.99,,,-99.99,,2013-04-16 04:53:00,
2013-04-15 23:00:00,12.0,-99.9,-100.00,ENE,64,11.0,14.0,-999,-99.99,,,-99.99,,2013-04-16 05:00:00,
2013-04-15 23:52:00,12.0,-99.9,-100.00,ENE,64,11.0,14.0,-999,-99.99,,,-99.99,,2013-04-16 05:52:00,